Overview Statistics Trail Chart Weather Telemetry Raw packets
 

This is the latest recevied weather packets stored in our database for station/object 4S6DRJ-13. If no packets are shown the sender has not sent any weather packets the latest 10 day(s).

<< 467 468 469 470 471 472 473 >>
Time Temp. Humidity Pressure Rain* Wind** Luminosity Snow
1787742572 28.89° C 80% 1008.6 hPa 0 mm 1.34 m/s, 240° 171 W/m² -
1787742511 28.89° C 80% 1008.4 hPa 0 mm 0.89 m/s, 293° 173 W/m² -
1787742450 28.89° C 80% 1008.7 hPa 0 mm 1.79 m/s, 212° 179 W/m² -
1787742388 28.89° C 79% 1008.5 hPa 0 mm 3.58 m/s, 228° 177 W/m² -
1787742328 28.89° C 79% 1008.6 hPa 0 mm 3.13 m/s, 254° 177 W/m² -
1787742267 28.89° C 79% 1008.6 hPa 0 mm 0.89 m/s, 55° 189 W/m² -
1787742206 28.89° C 79% 1008.6 hPa 0 mm 0.89 m/s, 163° 193 W/m² -
1787742145 28.89° C 79% 1008.5 hPa 0 mm 1.34 m/s, 243° 187 W/m² -
1787742083 29.44° C 79% 1008.6 hPa 0 mm 3.13 m/s, 206° 196 W/m² -
1787742022 29.44° C 78% 1008.4 hPa 0 mm 1.79 m/s, 266° 201 W/m² -
1787741962 29.44° C 78% 1008.2 hPa 0 mm 1.79 m/s, 187° 206 W/m² -
1787741901 29.44° C 78% 1008.4 hPa 0 mm 1.79 m/s, 356° 223 W/m² -
1787741839 29.44° C 78% 1008.3 hPa 0 mm 1.34 m/s, 254° 232 W/m² -
1787741779 29.44° C 78% 1008.3 hPa 0 mm 1.79 m/s, 278° 241 W/m² -
1787741718 29.44° C 78% 1008.3 hPa 0 mm 1.79 m/s, 241° 233 W/m² -
1787741656 29.44° C 78% 1008.3 hPa 0 mm 2.24 m/s, 205° 234 W/m² -
1787741596 29.44° C 78% 1008.2 hPa 0 mm 2.24 m/s, 226° 250 W/m² -
1787741535 29.44° C 78% 1008.2 hPa 0 mm 1.79 m/s, 200° 251 W/m² -
1787741473 29.44° C 77% 1008.3 hPa 0 mm 3.13 m/s, 215° 260 W/m² -
1787741412 29.44° C 78% 1008.3 hPa 0 mm 1.34 m/s, 220° 264 W/m² -
1787741352 29.44° C 78% 1008.3 hPa 0 mm 2.68 m/s, 230° 268 W/m² -
1787741291 29.44° C 78% 1008.2 hPa 0 mm 0.89 m/s, 190° 271 W/m² -
1787741230 29.44° C 77% 1008.3 hPa 0 mm 1.34 m/s, 237° 277 W/m² -
1787741169 29.44° C 77% 1008.2 hPa 0 mm 2.24 m/s, 227° 253 W/m² -
1787741109 29.44° C 76% 1008.3 hPa 0 mm 1.79 m/s, 236° 291 W/m² -

* Rain latest hour (hover to see other rain measurements)
** Current wind speed in m/s (hover to see current wind gust speed)